Flag for Australia Weather past 2 weeks in Samford, Queensland, Australia

Now
84 °F

Scattered clouds.


Feels Like: 88 °F
Forecast: 73 / 76 °F
Wind: 17 mph from Northeast

Location: Brisbane Airport M. O

Current Time: Dec 26, 2014 at 11:48:37 AM

Latest Report: Dec 26, 2014 at 11:00 AM


Visibility: N/A

Pressure: 29.86 "Hg

Humidity: 62%

Dew point: 70 °F

Location of SamfordLocation

Historic Weather in Samford — Graph

°F

Samford temperature yesterday

Maximum temperature yesterday: 84 °F (at 1:00 PM)
Minimum temperature yesterday: 72 °F (at 1:00 AM)
Average temperature yesterday: 77 °F

Past Weeks' High & Low Weather Summary

 TemperatureHumidityPressure
High90 °F (Dec 17, 11:30 AM)100% (Dec 11, 5:30 PM)30.07 "Hg (Dec 11, 5:30 PM)
Low63 °F (Dec 15, 1:30 AM)46% (Dec 17, 12:00 PM)29.62 "Hg (Dec 11, 6:00 PM)
Average75 °F70%29.86 "Hg
* Reported Dec 11 10:00 AM — Dec 26 10:30 AM, Samford, Weather by CustomWeather, © 2014

Note: Actual official high and low records may vary slightly from our data, if they occured in-between our weather recording intervals... More about our weather records

Advertising

Samford weather history for previous 24 hours

 ConditionsComfort  
Time TempWeatherWind HumidityBarometerVisibility
10:30 AM
Dec 26
82 °FPartly sunny.14 mph66%29.86 "HgN/A
10:00 AM84 °FPartly sunny.13 mph62%29.86 "HgN/A
9:30 AM82 °FPartly sunny.10 mph66%29.86 "HgN/A
9:00 AM81 °FPartly sunny.13 mph70%29.86 "HgN/A
8:00 AM81 °FScattered clouds.12 mph66%29.86 "HgN/A
7:00 AM77 °FPartly sunny.12 mph74%29.89 "HgN/A
6:30 AM77 °FBroken clouds.10 mph74%29.86 "HgN/A
6:00 AM77 °FPartly sunny.9 mph74%29.86 "HgN/A
5:30 AM75 °FBroken clouds.8 mph78%29.86 "HgN/A
5:00 AM75 °FScattered clouds.7 mph78%29.86 "HgN/A
4:30 AM75 °FPartly sunny.7 mph78%29.86 "HgN/A
4:00 AM75 °FPartly sunny.8 mph78%29.83 "HgN/A
3:30 AM75 °FPassing clouds.8 mph78%29.83 "HgN/A
3:00 AM75 °FPassing clouds.7 mph78%29.83 "HgN/A
2:30 AM75 °FPassing clouds.8 mph78%29.83 "HgN/A
2:00 AM75 °FPassing clouds.9 mph78%29.83 "HgN/A
1:00 AM77 °FPassing clouds.7 mph79%29.83 "HgN/A
12:30 AM77 °FPassing clouds.12 mph79%29.86 "HgN/A
12:00 AM77 °FPartly cloudy.10 mph74%29.86 "HgN/A
11:30 PM
Dec 25
77 °FPassing clouds.10 mph74%29.86 "HgN/A
11:00 PM77 °FPassing clouds.13 mph74%29.86 "HgN/A
10:30 PM77 °FPassing clouds.12 mph74%29.86 "HgN/A
10:00 PM77 °FPassing clouds.14 mph74%29.86 "HgN/A
9:30 PM77 °FPassing clouds.13 mph74%29.86 "HgN/A
9:00 PM77 °FPartly cloudy.13 mph74%29.86 "HgN/A
8:30 PM77 °FPartly cloudy.15 mph74%29.86 "HgN/A
8:00 PM77 °FPartly cloudy.14 mph74%29.86 "HgN/A
7:00 PM77 °FClear.10 mph69%29.83 "Hg10 mi
6:00 PM79 °FClear.14 mph70%29.83 "Hg10 mi
5:30 PM79 °FPartly sunny.15 mph65%29.83 "HgN/A
5:00 PM79 °FPartly sunny.14 mph65%29.80 "HgN/A
4:30 PM81 °FPartly sunny.16 mph62%29.80 "HgN/A
4:00 PM81 °FSunny.13 mph62%29.80 "Hg10 mi
3:30 PM81 °FSunny.15 mph66%29.80 "Hg10 mi
3:00 PM82 °FScattered clouds.15 mph62%29.83 "HgN/A
2:30 PM82 °FPassing clouds.15 mph58%29.83 "HgN/A
2:00 PM82 °FPassing clouds.15 mph55%29.86 "HgN/A
1:00 PM84 °FPassing clouds.13 mph55%29.86 "HgN/A
12:30 PM82 °FPassing clouds.10 mph51%29.89 "HgN/A
12:00 PM82 °FPassing clouds.10 mph55%29.89 "HgN/A
11:30 AM82 °FPassing clouds.10 mph55%29.89 "HgN/A
11:00 AM82 °FPassing clouds.10 mph55%29.92 "HgN/A
Weather by CustomWeather, © 2014

See weather overviewHow to use our weather pages